Regional Weather Roundup
Issued by NWS Jackson, KY

Home | Current Version | Previous Version | Text Only | Print | Product List | Glossary Off
Versions: 1 2 3 4 5 6 7 8 9 10 11 12 13 14 15 16 17 18 19 20 21 22 23 24 25 26 27 28 29 30 31 32 33 34 35 36 37 38 39 40 41 42 43 44 45 46 47 48 49 50

000
ASUS43 KJKL 021510
RWRJKL

EAST KENTUCKY HOURLY WEATHER ROUNDUP
NATIONAL WEATHER SERVICE JACKSON KY
1100 AM EDT SUN AUG 02 2015

NOTE: "FAIR" INDICATES FEW OR NO CLOUDS BELOW 12,000 FEET WITH
NO SIGNIFICANT WEATHER AND/OR OBSTRUCTIONS TO VISIBILITY.

* THESE REPORTS ARE NOT UNDER NWS QUALITY CONTROL AND MAY NOT
  REPORT WEATHER SUCH AS PRECIPITATION AND FOG.

KYZ079-080-083-085-087-088-110-112-115-119-120-021600
...EASTERN KENTUCKY...

CITY           SKY/WX    TMP DP  RH WIND       PRES   REMARKS
JACKSON        MOSUNNY   74  64  71 CALM      30.06S
LONDON         MOSUNNY   77  60  55 VRB5      30.05S
SOMERSET*      SUNNY     77  61  57 SE5       30.05S
MONTICELLO*    SUNNY     80  62  54 E8        30.05F
MIDDLESBORO*   MOSUNNY   73  65  76 CALM      30.06S
HAZARD APT*    SUNNY     75  64  69 CALM      30.06S
BLACK MTN*       N/A     68  57  68 S2          N/A
PIKEVILLE APT* SUNNY     68  64  88 CALM      30.07S
BIG SANDY*     MOSUNNY   74  63  69 S5        30.05S
MOREHEAD APT*  SUNNY     77  61  57 VRB5      30.05S
$$

KYZ035-036-041-042-044-050-067-078-099-021600
...CENTRAL KENTUCKY...

CITY           SKY/WX    TMP DP  RH WIND       PRES   REMARKS
MT STERLING*   SUNNY     79  59  50 S5        30.05S
FLEMING/MASON* SUNNY     79  63  57 SW3       30.04S
DANVILLE*      SUNNY     79  63  57 SE6       30.05R
RICHMOND*      SUNNY     79  61  53 SE7       30.03S
LEXINGTON      SUNNY     79  60  52 SE6       30.03S
FRANKFORT      SUNNY     79  59  50 SE5       30.01S
$$

KYZ091>093-OHZ055-061-077-WVZ005-015-034-035-042-021600
...SOUTHERN OHIO/WEST VIRGINIA...

CITY           SKY/WX    TMP DP  RH WIND       PRES   REMARKS
COVINGTON      SUNNY     80  60  50 W6        30.00F
COLUMBUS       MOSUNNY   81  60  48 W12       29.97S
DAYTON         MOSUNNY   79  62  56 W13       30.00S
WILMINGTON     SUNNY     80  59  48 W9        30.00S
HUNTINGTON     MOSUNNY   77  61  57 VRB3      30.02S
CHARLESTON     MOSUNNY   75  62  64 CALM      30.03S
PINEVILLE*     CLOUDY    72  65  80 MISG      30.13S
BECKLEY        PTSUNNY   72  54  53 N5        30.11S
BLUEFIELD      PTSUNNY   73  54  51 NE5       30.13R
$$

VAZ002-007-008-TNZ017-027-036-066-071-021600
...SOUTHWEST VIRGINIA/EAST TENNESSEE...

CITY           SKY/WX    TMP DP  RH WIND       PRES   REMARKS
ABINGDON*      SUNNY     78  54  43 SE7       30.09S
BRISTOL        MOSUNNY   78  62  57 CALM      30.06S
KNOXVILLE      MOSUNNY   80  65  59 NE5       30.01S
OAK RIDGE      SUNNY     80  64  58 VRB3      30.03S
CROSSVILLE     SUNNY     78  58  49 SE3       30.07S
NASHVILLE      MOSUNNY   81  61  50 SE7       30.02S
$$

...KEY TO REMARKS...
VSB - VISIBILITY IN MILES
WCI - WIND CHILL INDEX
HX  - HEAT INDEX

$$


USA.gov is the U.S. government's official web portal to all federal, state and local government web resources and services.